Fullerton, CA

12:41 AM PDT on May 26, 2017 (GMT -0700)
Fullerton Municipal

Weather History for KFUL - April, 2012

Change the Weather History Date:

Sunday, April 22, 2012

  Actual Average Record
Temperature  
Mean Temperature 66 °F 64 °F  
Max Temperature 70 °F 74 °F 91 °F (2017)
Min Temperature 62 °F 53 °F 46 °F (2010)
Degree Days  
Heating Degree Days 0 3  
Month to date heating degree days 43 83  
Since 1 July heating degree days 858 1175  
Cooling Degree Days 1 1  
Month to date cooling degree days 35 19  
Year to date cooling degree days 83 41  
Growing Degree Days 16 (Base 50)    
Moisture  
Dew Point 55 °F    
Average Humidity 70    
Maximum Humidity 78    
Minimum Humidity 61    
Precipitation  
Precipitation 0.00 in 0.03 in 0.05 in (2006)
Month to date precipitation 0.32 0.64  
Year to date precipitation 3.35 9.08  
Since 1 July precipitation 6.02  
Snow  
Snow 0.00 in - - ()
Month to date snowfall 0.0  
Year to date snowfall 0.0  
Snow Depth 0.00 in    
Sea Level Pressure  
Sea Level Pressure 29.95 in    
Wind  
Wind Speed 4 mph (SSW)    
Max Wind Speed 12 mph    
Max Gust Speed 15 mph    
Visibility 8 miles    
Events      
T = Trace of Precipitation, MM = Missing Value Source: NWS Daily Summary

Daily Weather History Graph

Daily Weather History Graph

Search for Another Location

Airport or City:

Trip Planner

Search our weather history database for the weather conditions in past years. The results will help you decide how hot, cold, wet, or windy it might be!

Date:

Astronomy

Apr. 22, 2012 Rise Set
Actual Time 6:12 AM PDT 7:28 PM PDT
Civil Twilight 5:46 AM PDT 7:55 PM PDT
Nautical Twilight 5:14 AM PDT 8:26 PM PDT
Astronomical Twilight 4:42 AM PDT 8:58 PM PDT
Moon 6:51 AM PDT (4/22) 9:04 PM PDT (4/22)
Length of Visible Light 14h 09m
Length of Day
13h 16m
New Moon, 2% of the Moon is Illuminated
Apr 22
New Moon
Apr 29
First Quarter
May 5
Full
May 12
Last Quarter
May 20
New

Hourly Weather History & Observations

Time (PDT) Temp. Dew Point Humidity Pressure Visibility Wind Dir Wind Speed Gust Speed Precip Events Conditions
12:53 AM 63.0 °F 55.9 °F 78% 29.96 in 6.0 mi Calm Calm - N/A   Haze
1:53 AM 63.0 °F 55.9 °F 78% 29.95 in 6.0 mi Calm Calm - N/A   Haze
2:53 AM 63.0 °F 55.9 °F 78% 29.93 in 6.0 mi Calm Calm - N/A   Haze
3:53 AM 63.0 °F 55.9 °F 78% 29.93 in 5.0 mi Calm Calm - N/A   Haze
4:53 AM 63.0 °F 55.9 °F 78% 29.92 in 6.0 mi Calm Calm - N/A   Haze
5:53 AM 62.1 °F 55.0 °F 78% 29.93 in 6.0 mi SW 3.5 mph - N/A   Haze
6:53 AM 62.1 °F 55.0 °F 78% 29.94 in 4.0 mi Variable 3.5 mph - N/A   Haze
7:53 AM 62.1 °F 55.9 °F 80% 29.94 in 4.0 mi SW 3.5 mph - N/A   Haze
8:53 AM 64.0 °F 55.9 °F 75% 29.95 in 4.0 mi Calm Calm - N/A   Haze
9:17 AM 64.4 °F 55.4 °F 73% 29.95 in 4.0 mi Calm Calm - N/A   Haze
9:53 AM 64.9 °F 55.9 °F 73% 29.96 in 4.0 mi Calm Calm - N/A   Haze
10:53 AM 64.9 °F 55.9 °F 73% 29.98 in 6.0 mi Variable 4.6 mph - N/A   Haze
11:28 AM 66.2 °F 55.4 °F 68% 29.98 in 7.0 mi South 5.8 mph - N/A   Overcast
11:53 AM 66.0 °F 55.9 °F 70% 29.97 in 9.0 mi Variable 5.8 mph - N/A   Overcast
12:51 PM 68.0 °F 55.4 °F 64% 29.97 in 10.0 mi Variable 3.5 mph - N/A   Mostly Cloudy
12:53 PM 68.0 °F 55.9 °F 65% 29.96 in 10.0 mi SSW 6.9 mph - N/A   Mostly Cloudy
1:53 PM 69.1 °F 55.9 °F 63% 29.96 in 10.0 mi Variable 6.9 mph - N/A   Scattered Clouds
2:00 PM 69.8 °F 55.4 °F 60% 29.96 in 10.0 mi SW 9.2 mph - N/A   Mostly Cloudy
2:36 PM 69.8 °F 55.4 °F 60% 29.95 in 10.0 mi SSW 8.1 mph - N/A   Scattered Clouds
2:53 PM 70.0 °F 55.9 °F 61% 29.95 in 10.0 mi SSW 8.1 mph - N/A   Partly Cloudy
3:13 PM 69.8 °F 55.4 °F 60% 29.95 in 10.0 mi SSW 10.4 mph - N/A   Mostly Cloudy
3:53 PM 66.9 °F 55.0 °F 66% 29.95 in 10.0 mi SSW 9.2 mph - N/A   Mostly Cloudy
4:53 PM 66.0 °F 55.0 °F 68% 29.94 in 10.0 mi SSW 8.1 mph - N/A   Overcast
5:53 PM 64.9 °F 55.0 °F 70% 29.94 in 10.0 mi SSW 6.9 mph - N/A   Overcast
6:53 PM 63.0 °F 54.0 °F 72% 29.93 in 10.0 mi SSW 4.6 mph - N/A   Overcast
7:53 PM 63.0 °F 54.0 °F 72% 29.93 in 10.0 mi SSW 3.5 mph - N/A   Overcast
8:53 PM 63.0 °F 55.0 °F 75% 29.94 in 10.0 mi Calm Calm - N/A   Overcast
9:53 PM 63.0 °F 54.0 °F 72% 29.96 in 10.0 mi SW 5.8 mph - N/A   Overcast
10:53 PM 62.1 °F 55.0 °F 78% 29.96 in 8.0 mi SW 5.8 mph - N/A   Overcast
11:53 PM 61.0 °F 55.0 °F 81% 29.97 in 6.0 mi SSW 5.8 mph - N/A   Haze